Air Force Academy, CO

2:12 PM MDT on June 25, 2017 (GMT -0600)
Usaf Academy

Weather History for KAFF - June, 2013

Change the Weather History Date:

Saturday, June 1, 2013

  Actual Average Record
Temperature  
Mean Temperature 51 °F -  
Max Temperature 65 °F 69 °F 86 °F (1998)
Min Temperature 38 °F 43 °F 38 °F (2013)
Degree Days  
Heating Degree Days 14    
Growing Degree Days 1 (Base 50)    
Moisture  
Dew Point 28 °F    
Average Humidity 37    
Maximum Humidity 67    
Minimum Humidity 22    
Precipitation  
Precipitation 0.00 in - - ()
Sea Level Pressure  
Sea Level Pressure 30.07 in    
Wind  
Wind Speed 11 mph (North)    
Max Wind Speed 25 mph    
Max Gust Speed 31 mph    
Visibility 10 miles    
Events      
Averages and records for this station are not official NWS values.
T = Trace of Precipitation, MM = Missing Value Source: NWS Daily Summary

Daily Weather History Graph

Daily Weather History Graph

Search for Another Location

Airport or City:

Trip Planner

Search our weather history database for the weather conditions in past years. The results will help you decide how hot, cold, wet, or windy it might be!

Date:

Astronomy

Jun. 01, 2013 Rise Set
Actual Time 5:35 AM MDT 8:19 PM MDT
Civil Twilight 5:04 AM MDT 8:50 PM MDT
Nautical Twilight 4:24 AM MDT 9:30 PM MDT
Astronomical Twilight 3:40 AM MDT 10:14 PM MDT
Moon 1:29 AM MDT (6/1) 1:54 PM MDT (6/1)
Length of Visible Light 15h 46m
Length of Day
14h 43m
Last Quarter, 40% of the Moon is Illuminated
Jun 1
Last Quarter
Jun 8
New
Jun 16
First Quarter
Jun 23
Full
Jun 29
Last Quarter

Hourly Weather History & Observations

Time (MDT) Temp. Windchill Dew Point Humidity Pressure Visibility Wind Dir Wind Speed Gust Speed Precip Events Conditions
12:58 AM 52.0 °F - 13.8 °F 22% 29.89 in 10.0 mi North 10.4 mph - N/A   Clear
1:58 AM 52.2 °F - 13.8 °F 22% 29.90 in 10.0 mi NNW 6.9 mph - N/A   Clear
2:58 AM 46.6 °F - 17.4 °F 31% 29.95 in 10.0 mi NNW 10.4 mph - N/A   Clear
3:58 AM 43.7 °F 37.3 °F 29.1 °F 57% 29.99 in 10.0 mi North 12.7 mph - N/A   Clear
4:58 AM 41.2 °F 35.0 °F 29.8 °F 64% 30.01 in 10.0 mi North 10.4 mph - N/A   Clear
5:58 AM 38.7 °F 31.4 °F 28.6 °F 67% 30.04 in 10.0 mi North 11.5 mph - N/A   Clear
6:58 AM 42.8 °F 38.0 °F 30.4 °F 62% 30.07 in 10.0 mi North 8.1 mph - N/A   Clear
7:58 AM 52.7 °F - 26.8 °F 37% 30.04 in 10.0 mi North 9.2 mph - N/A   Partly Cloudy
8:58 AM 55.8 °F - 24.4 °F 30% 30.08 in 10.0 mi North 18.4 mph 27.6 mph N/A   Scattered Clouds
9:58 AM 56.8 °F - 26.1 °F 31% 30.08 in 10.0 mi NNW 13.8 mph - N/A   Mostly Cloudy
10:58 AM 58.5 °F - 28.0 °F 31% 30.08 in 10.0 mi NNW 16.1 mph 25.3 mph N/A   Clear
11:58 AM 60.8 °F - 31.1 °F 33% 30.08 in 10.0 mi North 16.1 mph 31.1 mph N/A   Scattered Clouds
12:12 PM 60.8 °F - 30.2 °F 31% 30.23 in 10.0 mi North 18.4 mph 29.9 mph N/A   Partly Cloudy
12:58 PM 62.8 °F - 30.6 °F 30% 30.05 in 10.0 mi North 25.3 mph 29.9 mph N/A   Scattered Clouds
12:59 PM 62.6 °F - 32.0 °F 32% 30.22 in 10.0 mi North 21.9 mph 29.9 mph N/A   Scattered Clouds
1:58 PM 64.0 °F - 31.5 °F 30% 30.03 in 10.0 mi North 19.6 mph 31.1 mph N/A   Partly Cloudy
2:04 PM 64.4 °F - 32.0 °F 30% 30.22 in 10.0 mi NNW 20.7 mph 31.1 mph N/A   Partly Cloudy
2:58 PM 62.1 °F - 31.5 °F 32% 30.07 in 10.0 mi NNE 8.1 mph - N/A   Mostly Cloudy
3:58 PM 63.1 °F - 32.2 °F 31% 30.09 in 10.0 mi ENE 9.2 mph - N/A   Partly Cloudy
4:58 PM 64.6 °F - 32.4 °F 30% 30.08 in 10.0 mi NE 6.9 mph - N/A   Clear
5:58 PM 64.8 °F - 32.2 °F 30% 30.09 in 10.0 mi North 10.4 mph - N/A   Partly Cloudy
6:58 PM 64.9 °F - 32.2 °F 29% 30.09 in 10.0 mi ESE 8.1 mph - N/A   Scattered Clouds
7:58 PM 61.7 °F - 30.6 °F 31% 30.08 in 10.0 mi ESE 8.1 mph - N/A   Mostly Cloudy
8:58 PM 57.6 °F - 30.4 °F 36% 30.09 in 10.0 mi East 5.8 mph - N/A   Clear
9:58 PM 52.5 °F - 30.2 °F 42% 30.12 in 10.0 mi SSW 2.3 mph - N/A   Clear
10:58 PM 51.1 °F - 30.2 °F 45% 30.14 in 10.0 mi SSE 5.8 mph - N/A   Clear
11:58 PM 49.5 °F - 30.2 °F 48% 30.14 in 10.0 mi Calm Calm - N/A   Clear